Time,TemperatureF,DewpointF,PressureIn,WindDirection,WindDirectionDegrees,WindSpeedMPH,WindSpeedGustMPH,Humidity,HourlyPrecipIn,Conditions,Clouds,dailyrainin,SoftwareType,DateUTC
2013-09-22 00:13:00,55.0,45.0,29.96,North,0,0.0,-999.0,66,-99.99,,,-99.99,,2013-09-22 05:13:00,
2013-09-22 00:23:00,55.0,45.0,29.96,North,0,0.0,-999.0,66,-99.99,,,-99.99,,2013-09-22 05:23:00,
2013-09-22 00:53:00,54.0,45.0,29.96,North,0,0.0,-999.0,71,-99.99,,,-99.99,,2013-09-22 05:53:00,
2013-09-22 01:12:00,54.0,43.0,29.96,North,0,0.0,-999.0,66,-99.99,,,-99.99,,2013-09-22 06:12:00,
2013-09-22 01:22:00,54.0,43.0,29.97,North,0,0.0,-999.0,66,-99.99,,,-99.99,,2013-09-22 06:22:00,
2013-09-22 01:52:00,52.0,43.0,29.97,North,0,0.0,-999.0,71,-99.99,,,-99.99,,2013-09-22 06:52:00,
2013-09-22 02:11:00,52.0,45.0,29.97,North,0,0.0,-999.0,76,-99.99,,,-99.99,,2013-09-22 07:11:00,
2013-09-22 02:21:00,50.0,45.0,29.97,North,0,0.0,-999.0,81,-99.99,,,-99.99,,2013-09-22 07:21:00,
2013-09-22 02:52:00,50.0,45.0,29.96,North,0,0.0,-999.0,81,-99.99,,,-99.99,,2013-09-22 07:52:00,
2013-09-22 03:11:00,50.0,45.0,29.96,North,0,0.0,-999.0,81,-99.99,,,-99.99,,2013-09-22 08:11:00,
2013-09-22 03:22:00,50.0,45.0,29.96,North,0,0.0,-999.0,81,-99.99,,,-99.99,,2013-09-22 08:22:00,
2013-09-22 03:52:00,50.0,46.0,29.97,North,0,0.0,-999.0,87,-99.99,,,-99.99,,2013-09-22 08:52:00,
2013-09-22 04:11:00,50.0,46.0,29.97,North,0,0.0,-999.0,87,-99.99,,,-99.99,,2013-09-22 09:11:00,
2013-09-22 04:21:00,50.0,46.0,29.97,North,0,0.0,-999.0,87,-99.99,,,-99.99,,2013-09-22 09:21:00,
2013-09-22 04:54:00,48.0,45.0,29.98,North,0,0.0,-999.0,87,-99.99,,,-99.99,,2013-09-22 09:54:00,
2013-09-22 05:12:00,48.0,46.0,29.98,North,0,0.0,-999.0,93,-99.99,,,-99.99,,2013-09-22 10:12:00,
2013-09-22 05:23:00,48.0,45.0,29.98,North,0,0.0,-999.0,87,-99.99,,,-99.99,,2013-09-22 10:23:00,
2013-09-22 05:53:00,48.0,46.0,29.98,North,0,0.0,-999.0,93,-99.99,,,-99.99,,2013-09-22 10:53:00,
2013-09-22 06:12:00,50.0,46.0,29.98,North,0,0.0,-999.0,87,-99.99,,,-99.99,,2013-09-22 11:12:00,
2013-09-22 06:22:00,48.0,45.0,29.99,North,0,0.0,-999.0,87,-99.99,,,-99.99,,2013-09-22 11:22:00,
2013-09-22 06:52:00,48.0,46.0,30.00,North,0,0.0,-999.0,93,-99.99,,,-99.99,,2013-09-22 11:52:00,
2013-09-22 07:12:00,46.0,45.0,30.00,North,0,0.0,-999.0,93,-99.99,,,-99.99,,2013-09-22 12:12:00,
2013-09-22 07:22:00,46.0,43.0,30.00,North,0,0.0,-999.0,87,-99.99,,,-99.99,,2013-09-22 12:22:00,
2013-09-22 07:52:00,50.0,46.0,30.01,North,0,0.0,-999.0,87,-99.99,,,-99.99,,2013-09-22 12:52:00,
2013-09-22 08:12:00,50.0,48.0,30.01,North,0,0.0,-999.0,93,-99.99,,,-99.99,,2013-09-22 13:12:00,
2013-09-22 11:24:00,72.0,45.0,30.04,ESE,110,6.0,-999.0,37,-99.99,,,-99.99,,2013-09-22 16:24:00,
2013-09-22 14:11:00,75.0,41.0,30.00,SE,130,5.0,-999.0,29,-99.99,,,-99.99,,2013-09-22 19:11:00,
2013-09-22 14:22:00,77.0,41.0,29.99,NE,50,7.0,-999.0,27,-99.99,,,-99.99,,2013-09-22 19:22:00,
2013-09-22 14:52:00,75.0,41.0,29.98,North,0,0.0,-999.0,29,-99.99,,,-99.99,,2013-09-22 19:52:00,
2013-09-22 15:12:00,77.0,43.0,29.97,East,100,5.0,-999.0,29,-99.99,,,-99.99,,2013-09-22 20:12:00,
2013-09-22 15:22:00,77.0,41.0,29.97,NE,40,3.0,-999.0,27,-99.99,,,-99.99,,2013-09-22 20:22:00,
2013-09-22 15:52:00,77.0,43.0,29.96,SE,140,3.0,-999.0,29,-99.99,,,-99.99,,2013-09-22 20:52:00,
2013-09-22 16:12:00,77.0,41.0,29.96,SE,130,5.0,-999.0,27,-99.99,,,-99.99,,2013-09-22 21:12:00,
2013-09-22 16:23:00,77.0,41.0,29.95,North,0,0.0,-999.0,27,-99.99,,,-99.99,,2013-09-22 21:23:00,
2013-09-22 16:54:00,77.0,41.0,29.95,SE,130,8.0,-999.0,27,-99.99,,,-99.99,,2013-09-22 21:54:00,
2013-09-22 17:14:00,77.0,41.0,29.95,North,0,0.0,-999.0,27,-99.99,,,-99.99,,2013-09-22 22:14:00,
2013-09-22 17:24:00,77.0,41.0,29.95,East,100,7.0,-999.0,27,-99.99,,,-99.99,,2013-09-22 22:24:00,
2013-09-22 17:53:00,75.0,41.0,29.94,East,80,5.0,-999.0,29,-99.99,,,-99.99,,2013-09-22 22:53:00,
2013-09-22 18:12:00,75.0,41.0,29.95,ESE,120,7.0,-999.0,29,-99.99,,,-99.99,,2013-09-22 23:12:00,
2013-09-22 18:22:00,73.0,43.0,29.94,East,100,5.0,-999.0,33,-99.99,,,-99.99,,2013-09-22 23:22:00,
2013-09-22 18:52:00,72.0,43.0,29.95,ESE,110,3.0,-999.0,35,-99.99,,,-99.99,,2013-09-22 23:52:00,
2013-09-22 19:12:00,70.0,45.0,29.95,North,0,0.0,-999.0,40,-99.99,,,-99.99,,2013-09-23 00:12:00,
2013-09-22 19:23:00,66.0,46.0,29.95,North,0,0.0,-999.0,48,-99.99,,,-99.99,,2013-09-23 00:23:00,
2013-09-22 20:22:00,63.0,48.0,29.96,East,100,3.0,-999.0,59,-99.99,,,-99.99,,2013-09-23 01:22:00,
2013-09-22 20:52:00,61.0,48.0,29.96,East,90,3.0,-999.0,63,-99.99,,,-99.99,,2013-09-23 01:52:00,
2013-09-22 21:11:00,63.0,48.0,29.96,East,90,3.0,-999.0,59,-99.99,,,-99.99,,2013-09-23 02:11:00,
2013-09-22 21:22:00,63.0,48.0,29.96,East,100,3.0,-999.0,59,-99.99,,,-99.99,,2013-09-23 02:22:00,
2013-09-22 21:52:00,63.0,48.0,29.97,East,100,3.0,-999.0,59,-99.99,,,-99.99,,2013-09-23 02:52:00,
2013-09-22 22:12:00,63.0,50.0,29.96,East,100,5.0,-999.0,63,-99.99,,,-99.99,,2013-09-23 03:12:00,
2013-09-22 22:22:00,61.0,50.0,29.97,East,100,3.0,-999.0,67,-99.99,,,-99.99,,2013-09-23 03:22:00,
2013-09-22 22:54:00,61.0,50.0,29.97,East,90,3.0,-999.0,67,-99.99,,,-99.99,,2013-09-23 03:54:00,
2013-09-22 23:14:00,61.0,48.0,29.97,East,90,3.0,-999.0,63,-99.99,,,-99.99,,2013-09-23 04:14:00,
2013-09-22 23:24:00,61.0,50.0,29.98,East,100,3.0,-999.0,67,-99.99,,,-99.99,,2013-09-23 04:24:00,
2013-09-22 23:54:00,59.0,50.0,29.98,North,0,0.0,-999.0,72,-99.99,,,-99.99,,2013-09-23 04:54:00,